| time (UTC) | temp F | wind direction | speed MPH | gust MPH | rain 1hr in | rain 24hr in | rain mn in | humidity % | barometer mb |
| 20260510215021 | 70 | 57 | 8.0 | 13.0 | 0.00 | 0.05 | 0.05 | 38 | 1018.8 |
| 20260510214539 | 70 | 46 | 7.0 | 14.0 | 0.00 | 0.05 | 0.05 | 37 | 1018.8 |
| 20260510214024 | 70 | 53 | 9.0 | 16.0 | 0.00 | 0.05 | 0.05 | 37 | 1018.8 |
| 20260510213521 | 70 | 58 | 10.0 | 20.0 | 0.00 | 0.05 | 0.05 | 37 | 1018.8 |
| 20260510213101 | 70 | 48 | 10.0 | 20.0 | 0.00 | 0.05 | 0.05 | 35 | 1018.8 |
| 20260510212522 | 70 | 14 | 9.0 | 15.0 | 0.00 | 0.05 | 0.05 | 37 | 1018.8 |
| 20260510212022 | 70 | 63 | 10.0 | 18.0 | 0.00 | 0.05 | 0.05 | 38 | 1018.8 |
| 20260510211540 | 70 | 65 | 10.0 | 18.0 | 0.00 | 0.05 | 0.05 | 38 | 1019.1 |
| 20260510211024 | 70 | 61 | 9.0 | 18.0 | 0.00 | 0.05 | 0.05 | 36 | 1019.2 |
| 20260510210522 | 70 | 34 | 10.0 | 16.0 | 0.00 | 0.05 | 0.05 | 38 | 1019.2 |
| 20260510210038 | 70 | 34 | 10.0 | 17.0 | 0.00 | 0.05 | 0.05 | 40 | 1019.1 |
| 20260510205522 | 70 | 45 | 13.0 | 18.0 | 0.00 | 0.05 | 0.05 | 36 | 1019.1 |
| 20260510205022 | 70 | 349 | 10.0 | 18.0 | 0.00 | 0.05 | 0.05 | 37 | 1019.1 |
| 20260510204543 | 70 | 23 | 12.0 | 18.0 | 0.00 | 0.05 | 0.05 | 38 | 1019.2 |
| 20260510204021 | 69 | 5 | 9.0 | 17.0 | 0.00 | 0.05 | 0.05 | 40 | 1019.3 |
| 20260510203522 | 70 | 44 | 11.0 | 17.0 | 0.00 | 0.05 | 0.05 | 38 | 1019.1 |
| 20260510203032 | 70 | 21 | 10.0 | 19.0 | 0.00 | 0.05 | 0.05 | 37 | 1019.0 |
| 20260510202522 | 70 | 302 | 11.0 | 19.0 | 0.00 | 0.05 | 0.05 | 39 | 1019.0 |
| 20260510202023 | 70 | 33 | 12.0 | 20.0 | 0.00 | 0.05 | 0.05 | 38 | 1018.9 |
| 20260510201541 | 70 | 46 | 13.0 | 20.0 | 0.00 | 0.05 | 0.05 | 39 | 1018.9 |
| 20260510201022 | 70 | 53 | 7.0 | 18.0 | 0.00 | 0.05 | 0.05 | 41 | 1018.8 |
| 20260510200522 | 71 | 65 | 10.0 | 18.0 | 0.00 | 0.05 | 0.05 | 39 | 1018.8 |
| 20260510200045 | 71 | 34 | 8.0 | 17.0 | 0.00 | 0.05 | 0.05 | 43 | 1019.0 |
| 20260510195522 | 71 | 61 | 11.0 | 19.0 | 0.00 | 0.05 | 0.05 | 38 | 1018.8 |
| 20260510195024 | 70 | 42 | 10.0 | 19.0 | 0.00 | 0.05 | 0.05 | 43 | 1018.8 |
| 20260510194537 | 70 | 44 | 12.0 | 19.0 | 0.00 | 0.05 | 0.05 | 40 | 1018.9 |
| 20260510194023 | 70 | 22 | 12.0 | 18.0 | 0.00 | 0.05 | 0.05 | 40 | 1018.9 |
| 20260510193523 | 70 | 57 | 10.0 | 18.0 | 0.00 | 0.05 | 0.05 | 42 | 1018.8 |
| 20260510193038 | 69 | 28 | 11.0 | 18.0 | 0.00 | 0.05 | 0.05 | 41 | 1018.8 |
| 20260510192522 | 69 | 320 | 12.0 | 16.0 | 0.00 | 0.05 | 0.05 | 40 | 1018.9 |
| 20260510192023 | 68 | 49 | 10.0 | 17.0 | 0.00 | 0.05 | 0.05 | 43 | 1018.9 |
| 20260510191539 | 69 | 12 | 12.0 | 17.0 | 0.00 | 0.05 | 0.05 | 39 | 1019.0 |
| 20260510191022 | 69 | 32 | 11.0 | 20.0 | 0.00 | 0.05 | 0.05 | 42 | 1019.2 |
| 20260510190522 | 68 | 59 | 11.0 | 20.0 | 0.00 | 0.05 | 0.05 | 44 | 1018.8 |
| 20260510190055 | 68 | 55 | 13.0 | 20.0 | 0.00 | 0.05 | 0.05 | 44 | 1018.8 |
| 20260510185525 | 67 | 57 | 12.0 | 20.0 | 0.00 | 0.05 | 0.05 | 41 | 1019.0 |
| 20260510185023 | 66 | 49 | 14.0 | 20.0 | 0.00 | 0.05 | 0.05 | 43 | 1019.1 |
| 20260510184540 | 66 | 25 | 10.0 | 21.0 | 0.00 | 0.05 | 0.05 | 45 | 1019.2 |
| 20260510184022 | 65 | 32 | 12.0 | 21.0 | 0.00 | 0.05 | 0.05 | 46 | 1019.0 |
| 20260510183523 | 64 | 53 | 13.0 | 21.0 | 0.00 | 0.05 | 0.05 | 45 | 1019.1 |
| 20260510183039 | 64 | 61 | 12.0 | 20.0 | 0.00 | 0.05 | 0.05 | 46 | 1019.1 |
| 20260510182522 | 64 | 25 | 13.0 | 18.0 | 0.00 | 0.05 | 0.05 | 47 | 1018.8 |
| 20260510182022 | 63 | 38 | 10.0 | 18.0 | 0.00 | 0.05 | 0.05 | 48 | 1018.7 |
| 20260510181548 | 63 | 75 | 11.0 | 19.0 | 0.00 | 0.05 | 0.05 | 49 | 1018.9 |
| 20260510181022 | 62 | 62 | 13.0 | 19.0 | 0.00 | 0.05 | 0.05 | 50 | 1018.8 |
| 20260510180523 | 61 | 42 | 11.0 | 16.0 | 0.00 | 0.05 | 0.05 | 52 | 1019.0 |
| 20260510180037 | 61 | 29 | 10.0 | 16.0 | 0.00 | 0.05 | 0.05 | 51 | 1019.1 |
| 20260510175526 | 60 | 62 | 10.0 | 16.0 | 0.00 | 0.05 | 0.05 | 54 | 1019.2 |
| 20260510175023 | 60 | 19 | 10.0 | 16.0 | 0.00 | 0.05 | 0.05 | 53 | 1019.2 |
| 20260510174547 | 60 | 51 | 8.0 | 17.0 | 0.00 | 0.05 | 0.05 | 54 | 1019.5 |
| 20260510174023 | 60 | 53 | 9.0 | 17.0 | 0.00 | 0.05 | 0.05 | 54 | 1019.5 |
| 20260510173525 | 59 | 40 | 9.0 | 16.0 | 0.00 | 0.05 | 0.05 | 59 | 1019.6 |
| 20260510173039 | 59 | 40 | 8.0 | 15.0 | 0.00 | 0.05 | 0.05 | 59 | 1019.5 |
| 20260510172521 | 58 | 28 | 5.0 | 15.0 | 0.00 | 0.05 | 0.05 | 61 | 1019.4 |
| 20260510172020 | 58 | 32 | 9.0 | 15.0 | 0.00 | 0.05 | 0.05 | 61 | 1019.2 |
| 20260510171556 | 57 | 32 | 8.0 | 15.0 | 0.00 | 0.05 | 0.05 | 65 | 1019.2 |
| 20260510171023 | 57 | 41 | 6.0 | 11.0 | 0.00 | 0.05 | 0.05 | 66 | 1019.2 |
| 20260510170522 | 57 | 355 | 6.0 | 11.0 | 0.00 | 0.05 | 0.05 | 65 | 1019.3 |
| 20260510170046 | 57 | 13 | 6.0 | 12.0 | 0.01 | 0.05 | 0.05 | 66 | 1019.1 |
| 20260510165524 | 56 | 49 | 8.0 | 12.0 | 0.01 | 0.05 | 0.05 | 66 | 1019.0 |
| 20260510165024 | 56 | 30 | 8.0 | 11.0 | 0.01 | 0.05 | 0.05 | 65 | 1019.2 |
| 20260510164537 | 56 | 40 | 7.0 | 11.0 | 0.01 | 0.05 | 0.05 | 67 | 1019.2 |
| 20260510164020 | 55 | 61 | 6.0 | 13.0 | 0.01 | 0.05 | 0.05 | 70 | 1019.1 |
| 20260510163520 | 55 | 360 | 6.0 | 13.0 | 0.01 | 0.05 | 0.05 | 70 | 1019.2 |
| 20260510163048 | 55 | 11 | 8.0 | 13.0 | 0.01 | 0.05 | 0.05 | 72 | 1019.3 |
| 20260510162524 | 55 | 32 | 7.0 | 12.0 | 0.01 | 0.05 | 0.05 | 73 | 1019.1 |
| 20260510162023 | 55 | 360 | 6.0 | 11.0 | 0.01 | 0.05 | 0.05 | 74 | 1018.9 |
| 20260510161535 | 55 | 340 | 6.0 | 12.0 | 0.01 | 0.05 | 0.05 | 76 | 1018.8 |
| 20260510161026 | 55 | 34 | 8.0 | 12.0 | 0.01 | 0.05 | 0.05 | 77 | 1018.4 |
| 20260510160521 | 55 | 38 | 7.0 | 10.0 | 0.01 | 0.05 | 0.05 | 79 | 1018.4 |
| 20260510160041 | 54 | 36 | 5.0 | 9.0 | 0.00 | 0.04 | 0.04 | 79 | 1018.2 |
| 20260510155520 | 54 | 67 | 5.0 | 9.0 | 0.00 | 0.04 | 0.04 | 79 | 1018.3 |
| 20260510155022 | 54 | 38 | 6.0 | 9.0 | 0.00 | 0.04 | 0.04 | 78 | 1018.3 |
| 20260510154541 | 54 | 48 | 5.0 | 9.0 | 0.00 | 0.04 | 0.04 | 77 | 1018.5 |
| 20260510154026 | 54 | 36 | 5.0 | 9.0 | 0.00 | 0.04 | 0.04 | 77 | 1018.6 |
| 20260510153522 | 55 | 24 | 6.0 | 10.0 | 0.00 | 0.04 | 0.04 | 77 | 1018.7 |
| 20260510153042 | 54 | 30 | 5.0 | 10.0 | 0.00 | 0.04 | 0.04 | 77 | 1018.7 |
| 20260510152522 | 54 | 41 | 6.0 | 9.0 | 0.00 | 0.04 | 0.04 | 77 | 1018.5 |
| 20260510152023 | 54 | 42 | 4.0 | 9.0 | 0.00 | 0.04 | 0.04 | 77 | 1018.5 |
| 20260510151538 | 54 | 44 | 6.0 | 10.0 | 0.00 | 0.04 | 0.04 | 77 | 1018.5 |
| 20260510151022 | 54 | 59 | 5.0 | 10.0 | 0.00 | 0.04 | 0.04 | 77 | 1018.6 |
| 20260510150523 | 54 | 47 | 5.0 | 14.0 | 0.00 | 0.04 | 0.04 | 77 | 1018.6 |
| 20260510150041 | 54 | 33 | 7.0 | 14.0 | 0.01 | 0.04 | 0.04 | 77 | 1018.8 |
| 20260510145521 | 53 | 17 | 9.0 | 14.0 | 0.01 | 0.04 | 0.04 | 79 | 1018.5 |
| 20260510145021 | 53 | 55 | 8.0 | 13.0 | 0.01 | 0.04 | 0.04 | 80 | 1018.5 |
| 20260510144545 | 53 | 26 | 8.0 | 12.0 | 0.01 | 0.04 | 0.04 | 81 | 1018.6 |
| 20260510144022 | 53 | 40 | 8.0 | 12.0 | 0.01 | 0.04 | 0.04 | 81 | 1018.5 |
| 20260510143522 | 53 | 30 | 5.0 | 12.0 | 0.01 | 0.04 | 0.04 | 81 | 1018.9 |
| 20260510143038 | 53 | 19 | 5.0 | 14.0 | 0.01 | 0.04 | 0.04 | 81 | 1018.8 |
| 20260510142520 | 53 | 34 | 9.0 | 14.0 | 0.02 | 0.04 | 0.04 | 81 | 1018.8 |
| 20260510142022 | 53 | 38 | 8.0 | 13.0 | 0.02 | 0.04 | 0.04 | 81 | 1018.9 |
| 20260510141538 | 54 | 26 | 7.0 | 13.0 | 0.02 | 0.04 | 0.04 | 81 | 1018.8 |
| 20260510141024 | 54 | 28 | 8.0 | 13.0 | 0.02 | 0.04 | 0.04 | 80 | 1018.7 |
| 20260510140523 | 54 | 22 | 5.0 | 9.0 | 0.03 | 0.04 | 0.04 | 79 | 1018.6 |
| 20260510140038 | 54 | 350 | 4.0 | 11.0 | 0.02 | 0.03 | 0.03 | 79 | 1018.7 |
| 20260510135522 | 54 | 26 | 6.0 | 11.0 | 0.02 | 0.03 | 0.03 | 77 | 1018.8 |
| 20260510135020 | 55 | 18 | 6.0 | 11.0 | 0.02 | 0.03 | 0.03 | 76 | 1018.8 |
| 20260510134537 | 55 | 5 | 5.0 | 10.0 | 0.03 | 0.03 | 0.03 | 76 | 1018.9 |
| 20260510134028 | 55 | 32 | 4.0 | 9.0 | 0.03 | 0.03 | 0.03 | 75 | 1018.7 |
| 20260510133520 | 55 | 13 | 3.0 | 9.0 | 0.03 | 0.03 | 0.03 | 74 | 1018.5 |
| 20260510133036 | 55 | 346 | 3.0 | 9.0 | 0.03 | 0.03 | 0.03 | 74 | 1018.5 |
| 20260510132523 | 56 | 334 | 3.0 | 10.0 | 0.02 | 0.02 | 0.02 | 73 | 1018.5 |
| 20260510132021 | 56 | 360 | 5.0 | 10.0 | 0.02 | 0.02 | 0.02 | 73 | 1018.5 |
| 20260510131543 | 56 | 5 | 3.0 | 5.0 | 0.02 | 0.02 | 0.02 | 73 | 1018.5 |
| 20260510131025 | 56 | 5 | 2.0 | 10.0 | 0.01 | 0.01 | 0.01 | 72 | 1018.3 |
| 20260510130523 | 56 | 9 | 3.0 | 11.0 | 0.01 | 0.01 | 0.01 | 71 | 1018.2 |
| 20260510130038 | 56 | 67 | 4.0 | 11.0 | 0.01 | 0.01 | 0.01 | 71 | 1017.9 |
| 20260510125524 | 57 | 94 | 6.0 | 14.0 | 0.01 | 0.01 | 0.01 | 70 | 1017.8 |
| 20260510125022 | 57 | 61 | 8.0 | 14.0 | 0.00 | 0.00 | 0.00 | 68 | 1017.7 |
| 20260510124537 | 57 | 58 | 7.0 | 14.0 | 0.00 | 0.00 | 0.00 | 68 | 1017.6 |
| 20260510124022 | 58 | 44 | 9.0 | 19.0 | 0.00 | 0.00 | 0.00 | 67 | 1017.4 |
| 20260510123523 | 58 | 45 | 9.0 | 19.0 | 0.00 | 0.00 | 0.00 | 65 | 1017.1 |
| 20260510123036 | 59 | 45 | 10.0 | 21.0 | 0.00 | 0.00 | 0.00 | 66 | 1016.6 |
| 20260510122521 | 59 | 65 | 11.0 | 21.0 | 0.00 | 0.00 | 0.00 | 62 | 1016.4 |
| 20260510122021 | 59 | 44 | 14.0 | 21.0 | 0.00 | 0.00 | 0.00 | 62 | 1016.1 |
| 20260510121537 | 59 | 40 | 12.0 | 19.0 | 0.00 | 0.00 | 0.00 | 63 | 1015.9 |
| 20260510121021 | 59 | 43 | 11.0 | 19.0 | 0.00 | 0.00 | 0.00 | 65 | 1015.6 |
| 20260510120524 | 59 | 47 | 9.0 | 18.0 | 0.00 | 0.00 | 0.00 | 65 | 1015.3 |
| 20260510120037 | 59 | 24 | 8.0 | 19.0 | 0.00 | 0.00 | 0.00 | 65 | 1015.1 |
| 20260510115520 | 59 | 28 | 7.0 | 19.0 | 0.00 | 0.00 | 0.00 | 66 | 1015.0 |
| 20260510115021 | 59 | 44 | 12.0 | 19.0 | 0.00 | 0.00 | 0.00 | 65 | 1014.9 |
| 20260510114539 | 59 | 25 | 13.0 | 19.0 | 0.00 | 0.00 | 0.00 | 66 | 1014.7 |
| 20260510114021 | 59 | 61 | 11.0 | 18.0 | 0.00 | 0.00 | 0.00 | 66 | 1014.6 |
| 20260510113520 | 59 | 63 | 9.0 | 19.0 | 0.00 | 0.00 | 0.00 | 66 | 1014.4 |
| 20260510113042 | 59 | 41 | 13.0 | 20.0 | 0.00 | 0.00 | 0.00 | 66 | 1014.1 |
| 20260510112524 | 59 | 51 | 13.0 | 20.0 | 0.00 | 0.00 | 0.00 | 66 | 1013.7 |
| 20260510112024 | 59 | 48 | 11.0 | 21.0 | 0.00 | 0.00 | 0.00 | 66 | 1013.6 |
| 20260510111536 | 60 | 63 | 12.0 | 21.0 | 0.00 | 0.00 | 0.00 | 66 | 1013.3 |
| 20260510111024 | 60 | 58 | 13.0 | 21.0 | 0.00 | 0.00 | 0.00 | 66 | 1013.3 |
| 20260510110520 | 60 | 45 | 14.0 | 23.0 | 0.00 | 0.00 | 0.00 | 66 | 1013.2 |
| 20260510110048 | 60 | 48 | 13.0 | 23.0 | 0.00 | 0.00 | 0.00 | 65 | 1013.0 |
| 20260510105522 | 60 | 55 | 14.0 | 22.0 | 0.00 | 0.00 | 0.00 | 65 | 1013.0 |
| 20260510105020 | 60 | 42 | 12.0 | 18.0 | 0.00 | 0.00 | 0.00 | 65 | 1013.1 |
| 20260510104537 | 60 | 60 | 11.0 | 18.0 | 0.00 | 0.00 | 0.00 | 65 | 1013.1 |
| 20260510104024 | 60 | 42 | 10.0 | 18.0 | 0.00 | 0.00 | 0.00 | 65 | 1013.0 |
| 20260510103521 | 60 | 39 | 11.0 | 17.0 | 0.00 | 0.00 | 0.00 | 65 | 1013.1 |
| 20260510103039 | 60 | 32 | 10.0 | 17.0 | 0.00 | 0.00 | 0.00 | 65 | 1013.0 |
| 20260510102524 | 60 | 10 | 9.0 | 16.0 | 0.00 | 0.00 | 0.00 | 66 | 1013.0 |
| 20260510102020 | 60 | 52 | 10.0 | 16.0 | 0.00 | 0.00 | 0.00 | 66 | 1012.8 |
| 20260510101543 | 60 | 41 | 9.0 | 14.0 | 0.00 | 0.00 | 0.00 | 66 | 1012.5 |
| 20260510101022 | 60 | 36 | 9.0 | 16.0 | 0.00 | 0.00 | 0.00 | 67 | 1012.5 |
| 20260510100522 | 60 | 38 | 10.0 | 18.0 | 0.00 | 0.00 | 0.00 | 67 | 1012.5 |
| 20260510100048 | 59 | 40 | 11.0 | 18.0 | 0.00 | 0.00 | 0.00 | 67 | 1012.6 |
| 20260510095521 | 59 | 44 | 11.0 | 18.0 | 0.00 | 0.00 | 0.00 | 68 | 1012.5 |
| 20260510095020 | 59 | 43 | 8.0 | 14.0 | 0.00 | 0.00 | 0.00 | 69 | 1012.2 |
| 20260510094544 | 59 | 53 | 8.0 | 13.0 | 0.00 | 0.00 | 0.00 | 70 | 1012.1 |
| 20260510094023 | 59 | 66 | 8.0 | 13.0 | 0.00 | 0.00 | 0.00 | 70 | 1012.2 |
| 20260510093524 | 59 | 42 | 9.0 | 13.0 | 0.00 | 0.00 | 0.00 | 71 | 1012.1 |
| 20260510093040 | 59 | 32 | 8.0 | 12.0 | 0.00 | 0.00 | 0.00 | 71 | 1012.0 |
| 20260510092523 | 59 | 57 | 7.0 | 12.0 | 0.00 | 0.00 | 0.00 | 70 | 1011.8 |
| 20260510092025 | 59 | 39 | 8.0 | 13.0 | 0.00 | 0.00 | 0.00 | 70 | 1011.9 |
| 20260510091538 | 59 | 34 | 8.0 | 15.0 | 0.00 | 0.00 | 0.00 | 69 | 1011.9 |
| 20260510091023 | 60 | 21 | 9.0 | 15.0 | 0.00 | 0.00 | 0.00 | 69 | 1011.8 |
| 20260510090524 | 60 | 20 | 10.0 | 15.0 | 0.00 | 0.00 | 0.00 | 69 | 1011.7 |
| 20260510090036 | 60 | 19 | 10.0 | 15.0 | 0.00 | 0.00 | 0.00 | 69 | 1011.7 |
| 20260510085521 | 61 | 13 | 7.0 | 13.0 | 0.00 | 0.00 | 0.00 | 68 | 1011.6 |
| 20260510085021 | 61 | 20 | 10.0 | 14.0 | 0.00 | 0.00 | 0.00 | 68 | 1011.5 |
| 20260510084542 | 61 | 19 | 9.0 | 14.0 | 0.00 | 0.00 | 0.00 | 67 | 1011.5 |
| 20260510084021 | 61 | 5 | 7.0 | 13.0 | 0.00 | 0.00 | 0.00 | 67 | 1011.7 |
| 20260510083523 | 61 | 360 | 7.0 | 12.0 | 0.00 | 0.00 | 0.00 | 67 | 1011.7 |
| 20260510083038 | 61 | 360 | 6.0 | 12.0 | 0.00 | 0.00 | 0.00 | 67 | 1011.7 |
| 20260510082520 | 61 | 9 | 8.0 | 12.0 | 0.00 | 0.00 | 0.00 | 67 | 1011.7 |
| 20260510082022 | 61 | 39 | 8.0 | 11.0 | 0.00 | 0.00 | 0.00 | 66 | 1011.4 |
| 20260510081541 | 62 | 34 | 7.0 | 11.0 | 0.00 | 0.00 | 0.00 | 65 | 1011.3 |
| 20260510081022 | 62 | 40 | 7.0 | 11.0 | 0.00 | 0.00 | 0.00 | 65 | 1011.2 |
| 20260510080523 | 62 | 50 | 6.0 | 11.0 | 0.00 | 0.00 | 0.00 | 65 | 1011.2 |
| 20260510080052 | 62 | 42 | 6.0 | 11.0 | 0.00 | 0.00 | 0.00 | 64 | 1011.1 |
| 20260510075526 | 63 | 44 | 6.0 | 11.0 | 0.00 | 0.00 | 0.00 | 64 | 1010.9 |
| 20260510075022 | 63 | 57 | 7.0 | 11.0 | 0.00 | 0.00 | 0.00 | 64 | 1011.0 |
| 20260510074539 | 63 | 51 | 5.0 | 11.0 | 0.00 | 0.00 | 0.00 | 63 | 1011.1 |
| 20260510074020 | 63 | 44 | 7.0 | 11.0 | 0.00 | 0.00 | 0.00 | 63 | 1011.0 |
| 20260510073521 | 64 | 53 | 7.0 | 12.0 | 0.00 | 0.00 | 0.00 | 62 | 1011.1 |
| 20260510073042 | 64 | 50 | 7.0 | 12.0 | 0.00 | 0.00 | 0.00 | 62 | 1011.2 |
| 20260510072521 | 64 | 53 | 8.0 | 12.0 | 0.00 | 0.00 | 0.00 | 61 | 1011.1 |
| 20260510072021 | 64 | 69 | 6.0 | 11.0 | 0.00 | 0.00 | 0.00 | 61 | 1011.1 |
| 20260510071539 | 64 | 86 | 8.0 | 12.0 | 0.00 | 0.00 | 0.00 | 62 | 1011.1 |
| 20260510071020 | 64 | 71 | 6.0 | 12.0 | 0.00 | 0.00 | 0.00 | 62 | 1010.9 |
| 20260510070521 | 64 | 59 | 7.0 | 11.0 | 0.00 | 0.00 | 0.00 | 62 | 1010.9 |
| 20260510070047 | 64 | 65 | 8.0 | 11.0 | 0.00 | 0.00 | 0.00 | 63 | 1010.9 |
| 20260510065523 | 64 | 65 | 7.0 | 11.0 | 0.00 | 0.00 | 0.00 | 63 | 1010.8 |
| 20260510065025 | 64 | 76 | 5.0 | 8.0 | 0.00 | 0.00 | 0.00 | 63 | 1011.0 |
| 20260510064544 | 64 | 56 | 5.0 | 9.0 | 0.00 | 0.00 | 0.00 | 62 | 1011.0 |
| 20260510064020 | 64 | 64 | 6.0 | 11.0 | 0.00 | 0.00 | 0.00 | 62 | 1010.9 |
| 20260510063522 | 64 | 52 | 5.0 | 11.0 | 0.00 | 0.00 | 0.00 | 62 | 1010.8 |
| 20260510063038 | 64 | 48 | 8.0 | 11.0 | 0.00 | 0.00 | 0.00 | 61 | 1010.8 |
| 20260510062522 | 64 | 30 | 6.0 | 11.0 | 0.00 | 0.00 | 0.00 | 60 | 1010.6 |
| 20260510062023 | 64 | 56 | 8.0 | 11.0 | 0.00 | 0.00 | 0.00 | 60 | 1010.2 |
| 20260510061537 | 65 | 59 | 5.0 | 8.0 | 0.00 | 0.00 | 0.00 | 59 | 1010.2 |
| 20260510061024 | 65 | 67 | 4.0 | 8.0 | 0.00 | 0.00 | 0.00 | 59 | 1010.2 |
| 20260510060523 | 65 | 66 | 5.0 | 9.0 | 0.00 | 0.00 | 0.00 | 58 | 1010.1 |
| 20260510060041 | 65 | 60 | 5.0 | 9.0 | 0.00 | 0.00 | 0.00 | 58 | 1010.1 |
| 20260510055530 | 65 | 41 | 5.0 | 12.0 | 0.00 | 0.00 | 0.00 | 58 | 1010.0 |
| 20260510055022 | 65 | 54 | 8.0 | 12.0 | 0.00 | 0.00 | 0.00 | 58 | 1009.8 |
| 20260510054539 | 66 | 38 | 7.0 | 12.0 | 0.00 | 0.00 | 0.00 | 57 | 1009.7 |
| 20260510054021 | 66 | 47 | 8.0 | 12.0 | 0.00 | 0.00 | 0.00 | 57 | 1009.5 |
| 20260510053520 | 66 | 48 | 8.0 | 12.0 | 0.00 | 0.00 | 0.00 | 57 | 1009.4 |
| 20260510053038 | 66 | 37 | 8.0 | 11.0 | 0.00 | 0.00 | 0.00 | 58 | 1009.4 |
| 20260510052520 | 66 | 38 | 8.0 | 11.0 | 0.00 | 0.00 | 0.00 | 58 | 1009.2 |
| 20260510052021 | 66 | 36 | 8.0 | 11.0 | 0.00 | 0.00 | 0.00 | 58 | 1009.1 |
| 20260510051538 | 66 | 38 | 6.0 | 9.0 | 0.00 | 0.00 | 0.00 | 58 | 1009.1 |
| 20260510051025 | 67 | 40 | 4.0 | 6.0 | 0.00 | 0.00 | 0.00 | 57 | 1009.1 |
| 20260510050523 | 67 | 40 | 3.0 | 6.0 | 0.00 | 0.00 | 0.00 | 57 | 1009.2 |
| 20260510050038 | 66 | 44 | 3.0 | 9.0 | 0.00 | 0.00 | 0.00 | 55 | 1009.0 |
| 20260510045521 | 66 | 60 | 5.0 | 9.0 | 0.00 | 0.00 | 0.00 | 58 | 1009.0 |
| 20260510045020 | 66 | 65 | 5.0 | 9.0 | 0.00 | 0.00 | 0.00 | 58 | 1009.1 |
| 20260510044537 | 66 | 54 | 4.0 | 8.0 | 0.00 | 0.00 | 0.00 | 58 | 1009.3 |
| 20260510044023 | 66 | 78 | 2.0 | 6.0 | 0.00 | 0.00 | 0.00 | 57 | 1009.2 |
| 20260510043522 | 67 | 144 | 2.0 | 6.0 | 0.00 | 0.00 | 0.00 | 57 | 1009.1 |
| 20260510043036 | 67 | 157 | 3.0 | 6.0 | 0.00 | 0.00 | 0.00 | 57 | 1009.2 |
| 20260510042522 | 67 | 180 | 3.0 | 6.0 | 0.00 | 0.00 | 0.00 | 54 | 1009.3 |
| 20260510042020 | 68 | 188 | 3.0 | 5.0 | 0.00 | 0.00 | 0.00 | 53 | 1009.6 |
| 20260510041535 | 68 | 193 | 0.0 | 3.0 | 0.00 | 0.00 | 0.00 | 54 | 1009.5 |
| 20260510041023 | 68 | 0 | 0.0 | 2.0 | 0.00 | 0.00 | 0.00 | 54 | 1009.4 |
| 20260510040521 | 69 | 0 | 0.0 | 2.0 | 0.00 | 0.00 | 0.00 | 55 | 1009.5 |
| 20260510040039 | 69 | 298 | 0.0 | 2.0 | 0.00 | 0.00 | 0.00 | 53 | 1009.4 |
| 20260510035522 | 70 | 0 | 0.0 | 2.0 | 0.00 | 0.00 | 0.00 | 50 | 1009.5 |
| 20260510035022 | 70 | 285 | 0.0 | 2.0 | 0.00 | 0.00 | 0.00 | 51 | 1009.5 |
| 20260510034537 | 70 | 0 | 0.0 | 3.0 | 0.00 | 0.00 | 0.00 | 49 | 1009.4 |
| 20260510034025 | 70 | 0 | 1.0 | 3.0 | 0.00 | 0.00 | 0.00 | 50 | 1009.5 |
| 20260510033520 | 71 | 286 | 0.0 | 3.0 | 0.00 | 0.00 | 0.00 | 49 | 1009.3 |
| 20260510033051 | 71 | 0 | 1.0 | 6.0 | 0.00 | 0.00 | 0.00 | 48 | 1009.3 |
| 20260510032523 | 71 | 110 | 2.0 | 8.0 | 0.00 | 0.00 | 0.00 | 47 | 1009.1 |
| 20260510032023 | 71 | 105 | 3.0 | 8.0 | 0.00 | 0.00 | 0.00 | 47 | 1009.1 |
| 20260510031539 | 71 | 121 | 6.0 | 8.0 | 0.00 | 0.00 | 0.00 | 48 | 1008.7 |
| 20260510031022 | 72 | 105 | 4.0 | 8.0 | 0.00 | 0.00 | 0.00 | 47 | 1008.7 |
| 20260510030521 | 72 | 110 | 5.0 | 8.0 | 0.00 | 0.00 | 0.00 | 46 | 1008.9 |
| 20260510030037 | 72 | 144 | 5.0 | 9.0 | 0.00 | 0.00 | 0.00 | 46 | 1009.1 |
| 20260510025525 | 72 | 144 | 5.0 | 9.0 | 0.00 | 0.00 | 0.00 | 46 | 1009.4 |
| 20260510025021 | 72 | 162 | 4.0 | 9.0 | 0.00 | 0.00 | 0.00 | 45 | 1009.4 |
| 20260510024536 | 72 | 168 | 5.0 | 9.0 | 0.00 | 0.00 | 0.00 | 45 | 1009.4 |
| 20260510024022 | 72 | 146 | 5.0 | 10.0 | 0.00 | 0.00 | 0.00 | 45 | 1009.5 |
| 20260510023521 | 72 | 238 | 5.0 | 10.0 | 0.00 | 0.00 | 0.00 | 45 | 1009.4 |
| 20260510023039 | 73 | 66 | 5.0 | 10.0 | 0.00 | 0.00 | 0.00 | 46 | 1009.4 |
| 20260510022522 | 73 | 344 | 4.0 | 9.0 | 0.00 | 0.00 | 0.00 | 45 | 1009.3 |
| 20260510022023 | 73 | 19 | 5.0 | 8.0 | 0.00 | 0.00 | 0.00 | 43 | 1009.5 |
| 20260510021625 | 73 | 343 | 3.0 | 6.0 | 0.00 | 0.00 | 0.00 | 43 | 1009.5 |
| 20260510021021 | 73 | 342 | 2.0 | 4.0 | 0.00 | 0.00 | 0.00 | 42 | 1009.4 |
| 20260510020522 | 73 | 317 | 1.0 | 4.0 | 0.00 | 0.00 | 0.00 | 42 | 1009.4 |
| 20260510020038 | 74 | 317 | 2.0 | 4.0 | 0.00 | 0.00 | 0.00 | 42 | 1009.2 |
| 20260510015521 | 74 | 317 | 2.0 | 4.0 | 0.00 | 0.00 | 0.00 | 41 | 1009.0 |
| 20260510015021 | 74 | 286 | 1.0 | 3.0 | 0.00 | 0.00 | 0.00 | 41 | 1008.7 |
| 20260510014548 | 74 | 174 | 0.0 | 3.0 | 0.00 | 0.00 | 0.00 | 41 | 1008.3 |
| 20260510014021 | 75 | 0 | 0.0 | 5.0 | 0.00 | 0.00 | 0.00 | 39 | 1008.2 |
| 20260510013524 | 75 | 0 | 2.0 | 8.0 | 0.00 | 0.00 | 0.00 | 39 | 1007.9 |
| 20260510013036 | 75 | 132 | 4.0 | 8.0 | 0.00 | 0.00 | 0.00 | 39 | 1007.7 |
| 20260510012522 | 75 | 177 | 4.0 | 8.0 | 0.00 | 0.00 | 0.00 | 39 | 1007.4 |
| 20260510012021 | 75 | 159 | 4.0 | 9.0 | 0.00 | 0.00 | 0.00 | 38 | 1007.2 |
| 20260510011538 | 76 | 171 | 4.0 | 9.0 | 0.00 | 0.00 | 0.00 | 38 | 1006.9 |
| 20260510011021 | 76 | 155 | 6.0 | 12.0 | 0.00 | 0.00 | 0.00 | 37 | 1006.8 |
| 20260510010522 | 76 | 146 | 5.0 | 13.0 | 0.00 | 0.00 | 0.00 | 37 | 1006.6 |
| 20260510010048 | 76 | 150 | 8.0 | 16.0 | 0.00 | 0.00 | 0.00 | 37 | 1006.5 |
| 20260510005523 | 76 | 159 | 9.0 | 16.0 | 0.00 | 0.00 | 0.00 | 37 | 1006.4 |
| 20260510005022 | 77 | 142 | 9.0 | 14.0 | 0.00 | 0.00 | 0.00 | 37 | 1006.3 |
| 20260510004538 | 78 | 185 | 8.0 | 13.0 | 0.00 | 0.00 | 0.00 | 36 | 1006.2 |
| 20260510004021 | 78 | 147 | 7.0 | 13.0 | 0.00 | 0.00 | 0.00 | 35 | 1006.0 |
| 20260510003521 | 79 | 164 | 6.0 | 12.0 | 0.00 | 0.00 | 0.00 | 34 | 1005.8 |
| 20260510003038 | 79 | 161 | 7.0 | 12.0 | 0.00 | 0.00 | 0.00 | 34 | 1005.8 |
| 20260510002522 | 80 | 150 | 7.0 | 12.0 | 0.00 | 0.00 | 0.00 | 33 | 1005.7 |
| 20260510002021 | 80 | 166 | 6.0 | 12.0 | 0.00 | 0.00 | 0.00 | 33 | 1005.7 |
| 20260510001537 | 81 | 148 | 7.0 | 15.0 | 0.00 | 0.00 | 0.00 | 32 | 1005.6 |
| 20260510001021 | 82 | 175 | 8.0 | 16.0 | 0.00 | 0.00 | 0.00 | 30 | 1005.7 |
| 20260510000521 | 82 | 157 | 8.0 | 16.0 | 0.00 | 0.00 | 0.00 | 31 | 1005.6 |
| 20260510000037 | 82 | 171 | 10.0 | 14.0 | 0.00 | 0.00 | 0.00 | 30 | 1005.6 |
| 20260509235521 | 82 | 149 | 7.0 | 14.0 | 0.00 | 0.00 | 0.00 | 30 | 1005.7 |
| 20260509235021 | 83 | 203 | 9.0 | 14.0 | 0.00 | 0.00 | 0.00 | 29 | 1005.7 |
| 20260509234539 | 83 | 130 | 8.0 | 12.0 | 0.00 | 0.00 | 0.00 | 28 | 1005.8 |
| 20260509234021 | 84 | 170 | 8.0 | 12.0 | 0.00 | 0.00 | 0.00 | 28 | 1005.8 |
| 20260509233520 | 84 | 167 | 8.0 | 13.0 | 0.00 | 0.00 | 0.00 | 28 | 1005.8 |
| 20260509233037 | 84 | 155 | 8.0 | 14.0 | 0.00 | 0.00 | 0.00 | 28 | 1005.9 |
| 20260509232524 | 84 | 190 | 8.0 | 14.0 | 0.00 | 0.00 | 0.00 | 28 | 1005.9 |
| 20260509232021 | 84 | 154 | 7.0 | 14.0 | 0.00 | 0.00 | 0.00 | 28 | 1005.9 |
| 20260509231537 | 85 | 154 | 8.0 | 15.0 | 0.00 | 0.00 | 0.00 | 27 | 1005.8 |
| 20260509231022 | 85 | 164 | 7.0 | 15.0 | 0.00 | 0.00 | 0.00 | 29 | 1005.9 |
| 20260509230522 | 85 | 189 | 8.0 | 15.0 | 0.00 | 0.00 | 0.00 | 27 | 1005.8 |
| 20260509230041 | 85 | 136 | 8.0 | 15.0 | 0.00 | 0.00 | 0.00 | 26 | 1005.8 |
| 20260509225522 | 85 | 159 | 10.0 | 14.0 | 0.00 | 0.00 | 0.00 | 25 | 1005.8 |
| 20260509225022 | 85 | 179 | 8.0 | 13.0 | 0.00 | 0.00 | 0.00 | 28 | 1005.8 |
| 20260509224536 | 85 | 151 | 7.0 | 16.0 | 0.00 | 0.00 | 0.00 | 27 | 1005.7 |
| 20260509224021 | 86 | 158 | 9.0 | 16.0 | 0.00 | 0.00 | 0.00 | 27 | 1005.8 |
| 20260509223523 | 86 | 153 | 8.0 | 16.0 | 0.00 | 0.00 | 0.00 | 26 | 1005.8 |
| 20260509223038 | 86 | 155 | 5.0 | 14.0 | 0.00 | 0.00 | 0.00 | 26 | 1005.8 |
| 20260509222520 | 86 | 164 | 7.0 | 16.0 | 0.00 | 0.00 | 0.00 | 24 | 1005.6 |
| 20260509222023 | 86 | 188 | 6.0 | 17.0 | 0.00 | 0.00 | 0.00 | 26 | 1005.6 |
| 20260509221541 | 86 | 163 | 8.0 | 17.0 | 0.00 | 0.00 | 0.00 | 26 | 1005.6 |
| 20260509221024 | 86 | 203 | 8.0 | 16.0 | 0.00 | 0.00 | 0.00 | 26 | 1005.5 |
| 20260509220525 | 86 | 165 | 8.0 | 16.0 | 0.00 | 0.00 | 0.00 | 25 | 1005.5 |
| 20260509220038 | 86 | 155 | 9.0 | 16.0 | 0.00 | 0.00 | 0.00 | 25 | 1005.4 |
| 20260509215523 | 87 | 235 | 4.0 | 18.0 | 0.00 | 0.00 | 0.00 | 22 | 1005.5 |